Find CuPID

NORAD ID: 49264 Int'l Des: 2021-088 Owner: BU Country: US operational
LEOCIRCULARRETROGRADESSO

リアルタイム位置

3D地球を読み込み中...

CuPIDについて

説明を読み込み中...

次回通過

Passes for default location (London). Set your location on the main map for personalized predictions.

高度履歴

Loading altitude history...

軌道要素

1 49264U 21088E 26104.17274896 .00003962 00000-0 16094-3 0 9994
2 49264 97.3929 166.1406 0010795 292.1042 67.9049 15.25104660250420
Epoch: Apr 14, 2026 • Age: 11 hours

現在のステータス

高度 493.1 km
速度 7.62 km/s
衛星直下点 -18.70°S, 99.99°E
打ち上げ日 Sep 27, 2021
運用期間 4.5 years
タイプ other

技術仕様

分類 Payload
質量 10.00 kg
乾燥質量 10.00 kg
総質量 10.00 kg
長さ 0.30 m
直径 0.20 m
スパン 0.30 m
形状 Box
製造者 BU
バスタイプ Cubesat 6U
フェーズステータス In Orbit
所有者/国 BU/US

Most Searched